"Pseudo-MPEC" for XL8D89E
Created 2018 Nov 6 1:37:41 UT using Find_Orb
Click here for an explanation of pseudo-MPECs
TLEs (Two-Line Elements) are available for this object here. Be warned that not all software will actually use TLEs for an object in an orbit this high.
This object has the distinction of having the highest known geocentric orbit of any object, unless you include objects at the earth/sun L1 and L2 points, which would be a real stretch.
This is probably the same object as 6Q0B44E, an "unknown" tracked about a decade ago, then lost. I can't get an orbit that uses the observations from both objects. However, consider the following orbital elements for both objects, set to a common intermediate epoch. They do look rather similar, right down to the absolute magnitude and the (somewhat high) area/mass ratio :
Orbital elements: XL8D89E Perigee 2014 Dec 2.726934 +/- 0.00439 TT = 17:26:47 (JD 2456994.226934) Epoch 2015 Jan 1.0 TT; AMR 0.033328 +/- 8.28e-5 m^2/kg Gray M 126.5883820 +/- 0.017 (J2000 equatorial) n 4.3243978255 +/- 6.11e-5 Peri. 78.2464876 +/- 0.0034 a805353.24450 +/- 7.58 Node 261.3441835 +/- 0.007 e 0.205617965 +/- 7.52e-5 Incl. 52.2130720 +/- 0.0017 P 83.25d H 30.0 G 0.15 U 6.2 q 639758.14925 +/- 66.1 Q 970948.33975 +/- 52.4 53 of 63 observations 2016 June 7-Oct. 5; mean residual 0".568 Orbital elements: 6Q0B44E = unk P=80d Perigee 2014 Dec 1.792715 +/- 0.183 TT = 19:01:30 (JD 2456993.292715) Epoch 2015 Jan 1.0 TT; AMR 0.027274 +/- 7.08e-5 m^2/kg Gray M 124.3738152 +/- 0.7 (J2000 equatorial) n 4.1173450917 +/- 0.00539 Peri. 79.1783345 +/- 0.49 a832131.56028 +/- 719 Node 259.9646975 +/- 0.14 e 0.245876670 +/- 0.000874 Incl. 51.8024536 +/- 0.06 P 87.43d H 30.2 G 0.15 U 9.2 q 627529.82249 +/- 295 Q 0.0069301340 +/- 1.07e-5 53 of 56 observations 2006 Aug. 28-2007 Mar. 7; mean residual 1".177
Assuming it's about three meters across, it would mass about 200 kg.
It's not possible to compute an orbit using all observations for either object; each appears to have "maneuvered", or (more likely) has some unmodelled non-gravitational forces. Since I can't even get an orbit consistent with each short arc, it's unsurprising to me that I can't link the two. But I'm pretty much assuming they're the same object.
At some point, it may be possible to go trawling through the survey archives. One might then be able to use the XL8D89E orbit to get some data from 2015, then 2014, and so on, gradually working backward, and perhaps simultaneously going forward from 2007 on 6Q0B44E, eventually meeting in the middle. Almost exactly this was done for WT1190F, the object that re-entered over Sri Lanka in November 2015.
Astrometry:
XL8D89E C2015 11 17.41496803 15 00.834-03 44 27.08 x19.2 RtD0548F51
XL8D89E C2015 11 17.42667403 15 03.754-03 46 50.88 x19.3 RtD0548F51
XL8D89E C2016 01 29.25660201 51 23.050+06 12 24.65 x20.3 RtD0548F51
XL8D89E C2016 01 29.26324101 51 25.325+06 11 16.56 x20.2 RtD0548F51
XL8D89E C2016 01 29.26991401 51 27.734+06 10 07.85 x20.4 RtD0548F51
XL8D89E C2016 01 29.27659201 51 30.244+06 08 59.49 x20.2 RtD0548F51
XL8D89E C2016 03 30.48830316 00 53.600+24 39 46.10 x20.8 RtD0548F51
XL8D89E C2016 03 30.50260216 00 56.462+24 41 36.87 x20.8 RtD0548F51
XL8D89E C2016 03 30.51683316 00 58.912+24 43 24.46 x20.8 RtD0548F51
XL8D89E C2016 03 30.53116116 01 01.104+24 45 06.27 x20.7 RtD0548F51
XL8D89E C2016 06 07.21867 13 27 27.95 -04 03 06.8 20.9 V D0547G96
XL8D89E C2016 06 07.22556 13 27 29.45 -04 02 16.1 20.5 V D0547G96
XL8D89E C2016 06 07.23123 13 27 30.67 -04 01 35.9 20.2 V D0547G96
XL8D89E C2016 06 07.23691 13 27 31.96 -04 00 53.2 20.9 V D0547G96
XL8D89E C2016 06 07.32441 13 27 59.86 -03 50 03.2 21.2 V D0547G96
XL8D89E C2016 06 07.32563 13 28 00.42 -03 49 55.4 21.3 V D0547G96
XL8D89E C2016 06 08.22184 13 38 51.69 -02 05 55.2 21.1 V D0547G96
XL8D89E C2016 06 08.22301 13 38 51.93 -02 05 46.7 21.0 V D0547G96
XL8D89E C2016 06 08.22416 13 38 52.20 -02 05 39.0 21.0 V D0547G96
XL8D89E C2016 06 08.22533 13 38 52.41 -02 05 30.8 20.9 V D0547G96
XL8D89E C2016 06 08.29056 13 39 09.51 -01 57 46.9 20.9 V D0547G96
XL8D89E C2016 06 08.29244 13 39 10.08 -01 57 34.6 20.4 V D0547G96
XL8D89E C2016 06 08.29437 13 39 10.73 -01 57 19.6 D0547G96
XL8D89E C2016 06 08.29626 13 39 11.37 -01 57 05.9 D0547G96
XL8D89E KC2016 06 09.18148 13 50 07.58 -00 15 27.1 D0547291
XL8D89E KC2016 06 09.18248 13 50 07.74 -00 15 20.1 20.4 R D0547291
XL8D89E HC2016 06 09.18334 13 50 07.91 -00 15 15.7 D0547691
XL8D89E KC2016 06 09.18347 13 50 08.00 -00 15 13.3 20.2 R D0547291
XL8D89E HC2016 06 09.18669 13 50 08.53 -00 14 52.4 D0547691
XL8D89E C2016 06 09.21674 13 50 12.95 -00 11 34.9 21.1 V D0547G96
XL8D89E C2016 06 09.21862 13 50 13.30 -00 11 22.7 21.3 V D0547G96
XL8D89E C2016 06 09.22055 13 50 13.72 -00 11 09.9 21.6 V D0547G96
XL8D89E C2016 06 09.22243 13 50 14.05 -00 10 56.6 20.7 V D0547G96
XL8D89E KC2016 06 09.89380013 59 02.349+01 21 28.31 22.0 RtD0547Y28
XL8D89E KC2016 06 09.89807113 59 02.986+01 21 57.46 21.5 RtD0547Y28
XL8D89E KC2016 06 12.04421414 22 14.379+05 18 10.43 19.9 RtD0547Y28
XL8D89E KC2016 06 12.04769814 22 14.863+05 18 31.74 19.9 RtD0547Y28
XL8D89E C2016 06 20.41322916 03 25.232+18 24 03.44 20.3 Rt F51
XL8D89E C2016 06 20.42583116 03 28.304+18 24 52.01 20.3 Rt F51
XL8D89E C2016 06 20.43835916 03 31.600+18 25 38.00 20.1 Rt F51
XL8D89E C2016 06 20.45088316 03 35.153+18 26 21.47 20.4 Rt F51
XL8D89E C2016 07 04.92810519 30 38.521+27 41 21.31 21.0 RqD0549J04
XL8D89E C2016 07 04.93739319 30 43.267+27 41 39.75 20.2 RqD0549J04
XL8D89E C2016 07 04.93785719 30 43.517+27 41 40.71 qD0549J04
XL8D89E C2016 07 04.93925119 30 44.239+27 41 43.03 19.9 RqD0549J04
XL8D89E C2016 07 04.93971619 30 44.414+27 41 43.87 20.2 RqD0549J04
XL8D89E C2016 07 04.94018219 30 44.684+27 41 44.76 19.6 RqD0549J04
XL8D89E C2016 07 04.94064719 30 44.870+27 41 45.95 19.4 RqD0549J04
XL8D89E C2016 07 11.39609 21 03 16.30 +23 32 22.3 20.2 V D0549G96
XL8D89E C2016 07 11.40347 21 03 18.53 +23 31 52.0 20.2 V D0549G96
XL8D89E C2016 07 11.41077 21 03 20.77 +23 31 22.0 20.0 V D0549G96
XL8D89E C2016 07 11.41806 21 03 23.01 +23 30 49.0 20.3 V D0549G96
XL8D89E tC2016 07 17.44326222 27 07.164+15 34 29.82 20.7 Rt F51
XL8D89E tC2016 07 17.45531322 27 10.980+15 33 37.50 20.5 Rt F51
XL8D89E tC2016 07 17.46731222 27 14.459+15 32 43.80 20.2 Rt F51
XL8D89E C2016 10 05.14142 21 42 36.29 +24 52 48.3 20.9 V D0551G96
XL8D89E C2016 10 05.14628 21 42 37.80 +24 52 18.3 20.6 V D0551G96
XL8D89E C2016 10 05.15107 21 42 39.20 +24 51 48.7 20.6 V D0551G96
XL8D89E C2016 10 05.15589 21 42 40.66 +24 51 18.4 20.6 V D0551G96
XL8D89E C2016 10 05.19820 21 42 53.19 +24 46 29.9 20.8 V D0551G96
XL8D89E C2016 10 05.20014 21 42 53.81 +24 46 15.7 20.4 V D0551G96
XL8D89E C2016 10 05.20207 21 42 54.42 +24 46 01.7 20.6 V D0551G96
XL8D89E C2016 10 05.20399 21 42 54.89 +24 45 47.3 20.9 V D0551G96
XL8D89E C2017 02 02.46041 09 18 19.111-16 34 16.19 19.6 wUD0554F51
XL8D89E C2017 02 02.47215 09 18 27.108-16 31 16.63 19.7 wUD0554F51
XL8D89E C2017 02 02.48393 09 18 35.211-16 28 13.34 19.6 wUD0554F51
XL8D89E C2017 05 16.15618 13 03 09.48 +23 07 43.9 20.0 VqD0556G96
XL8D89E C2017 05 16.16043 13 03 13.54 +23 08 37.0 19.8 VqD0556G96
XL8D89E C2017 05 16.16469 13 03 17.57 +23 09 29.9 19.6 VqD0556G96
XL8D89E C2017 05 16.16894 13 03 21.63 +23 10 21.8 19.9 VqD0556G96
XL8D89E CK181102:00404464 074.17765 -13.62955 20.0 GV J95
XL8D89E CK181102:01030350 074.21204 -13.55853 20.2 GV J95
XL8D89E CK181102:01212264 074.23948 -13.49997 19.9 GV J95
Station data:
(291) LPL/Spacewatch II (N31.961669 W111.599905) US/Arizona. Observers J.
V. Scotti, R. S. McMillan. 1.8-m f/2.7 reflector + CCD.
(691) Steward Observatory, Kitt Peak - Spacewatch (N31.962174 W111.600327)
US/Arizona. Observer J. V. Scotti. 0.9-m f/3 reflector + CCD.
(F51) Pan-STARRS 1, Haleakala (N20.707235 W156.255910) US/Hawaii.
Observers B. Gibson, T. Goggia, N. Primak, A. Schultz, M. Willman.
Measurer M. Micheli. 1.8-m Ritchey-Chrétien + CCD.
(G96) Mt. Lemmon Survey (N32.442754 W110.788720) US/Arizona. Observer G.
J. Leonard. Measurers E. J. Christensen, D. C. Fuls, A. R. Gibbs, A. D.
Grauer, J. A. Johnson, R. A. Kowalski, S. M. Larson, G. J. Leonard, R. G.
Matheny, R. L. Seaman, F. C. Shelly. 1.5-m reflector + 10K CCD.
(J04) ESA Optical Ground Station, Tenerife (N28.300924 W16.511830) Canary
Islands (Spain). Observer D. Abreu. Measurers M. Micheli, D. Koschny, E.
Schwab, M. Busch, A. Knöfel. 1.0-m f/4.4 reflector + CCD.
(J95) Great Shefford (N51.474969 W1.447003) UK. Observer P. Birtwhistle.
(Y28) OASI, Nova Itacuruba (S8.788708 W38.687400) Brazil. Observers J. S.
Silva, D. Lazzaro, F. Monteiro, R. Souza, T. Rodrigues. Measurers M.
Micheli, J. S. Silva. 1.0-m f/7 reflector + CCD.
Orbital elements: XL8D89E
Perigee 2018 Jul 26.329314 +/- 0.00437 TT = 7:54:12 (JD 2458325.829314)
Epoch 2018 Jul 1.0 TT; AMR 0.028884 +/- 1.61e-5 m2/kg Gray
M 234.7643857903 +/- 0.022 (J2000 equator)
n 4.9442954549 +/- 1.94e-5 Peri. 244.4599096 +/- 0.015
a736547.16618 +/- 1.92 Node 100.9859742 +/- 0.0016
e 0.177721456 +/- 1.99e-5 Incl. 50.6946864 +/- 0.00046
P 72.81d H 30.0 G 0.15 U 5.5
q 605646.93087 +/- 16.1 Q 867447.40148 +/- 12.6
63 of 73 observations 2016 June 7-2018 Nov. 2; mean residual 10".022
